Weather Roundup
Issued by NWS Chicago, IL

Home | Current Version | Previous Version | Text Only | Print | Product List | Glossary Off
Versions: 1 2 3 4 5 6 7 8 9 10 11 12 13 14 15 16 17 18 19 20 21 22 23 24 25 26 27 28 29 30 31 32 33 34 35 36 37 38 39 40 41 42 43 44 45 46 47 48 49 50

000
NZUS59 KLOT 222006
HRRLOT

CHICAGO AREA WEATHER ROUNDUP
NATIONAL WEATHER SERVICE CHICAGO/ROMEOVILLE IL
300 PM CDT FRI AUG 22 2014

NOTE: "FAIR" INDICATES FEW OR NO CLOUDS BELOW 12,000 FEET WITH NO
SIGNIFICANT WEATHER AND/OR OBSTRUCTIONS TO VISIBILITY.

* THESE STATIONS ARE NOT UNDER NWS QUALITY CONTROL. THEY ALSO MAY NOT
  REPORT WEATHER SUCH AS PRECIPITATION OR FOG.

ILZ005-006-012>014-019>023-222100-
NORTHEAST ILLINOIS

CITY           SKY/WX    TMP DP  RH WIND       PRES   REMARKS
OHARE          PTSUNNY   85  68  56 SW5       29.92F HX  88
MIDWAY         PTSUNNY   86  71  60 SW10      29.92F HX  91
AURORA         CLOUDY    82  73  74 W13       29.94F HX  87
LANSING*       CLOUDY    85  71  63 W8        29.93F HX  90
JOLIET*        CLOUDY    82  69  64 W6        29.94F HX  85
WAUKEGAN       MOSUNNY   79  73  82 E3        29.93S HX  82
DUPAGE AIRPORT PTSUNNY   84  71  65 NW12      29.93F HX  89
WHEELING       PTSUNNY   87  71  58 CALM      29.93S HX  93
KANKAKEE*      CLOUDY    81  74  79 CALM      29.95F HX  86
MORRIS*        CLOUDY    83  73  71 W7        29.94S HX  88
LEWIS AIRPORT* PTSUNNY   81  71  71 W8        29.94F HX  84
NORTHERLY IS     N/A     85  67  54 W7          N/A  HX  87
$$

WIZ051-052-058>065-066-070>072-222100-
SOUTHEAST WISCONSIN

CITY           SKY/WX    TMP DP  RH WIND       PRES   REMARKS
MILWAUKEE      MOSUNNY   83  73  72 CALM      29.93F HX  89
KENOSHA*       MOSUNNY   82  75  79 NE6       29.94S HX  89
RACINE*        MOSUNNY   82  73  74 SE5       29.95F HX  87
BURLINGTON     MOSUNNY   83  75  77 E3        29.93F HX  90
WAUKESHA       PTSUNNY   82  72  69 SE5       29.95S HX  87
WEST BEND      PTSUNNY   81  70  69 E8        29.94F HX  84
$$

INZ001>003-010>013-019-020-222100-
NORTHWEST INDIANA

CITY           SKY/WX    TMP DP  RH WIND       PRES   REMARKS
GARY*          PTSUNNY   86  72  62 W9        29.93F HX  92
MICHIGAN CITY* NOT AVBL
RENSSELAER*    NOT AVBL
VALPARAISO     CLOUDY    84  73  69 VRB3      29.95F HX  90
$$

LMZ740>746-222100-
SOUTHERN LAKE MICHIGAN

STATION/POSITION TIME  SKY/WX   TEMP WIND        PRES    VSBY
                                AIR  DIR/SP/G
                 (UTC)          (F)  (DEG/KT/KT) (MB)    (MI)
HARRISON CRIB    2000            78  100/  8/  9   N/A
BURNHAM HARBOR   2000            86  310/  3/ 10   N/A
CALUMET HARBOR   2000            84  200/  8/ 11 1012.1F
BURNS HARBOR     NOT AVBL
MICHIGAN CITY    2000            80  330/  1/  1   N/A
$$

ABBREVIATIONS USED IN REMARKS
   TC - TEMPERATURE IN CELSIUS
  WCI - WIND CHILL INDEX
   HX - HEAT INDEX
  VSB - VISIBILITY
$$



USA.gov is the U.S. government's official web portal to all federal, state and local government web resources and services.